Year,Month,Day,Hour,Minute,Value (Times are PST for temperature in C)
2010,09,11,00,00,13.60
2010,09,11,00,01,13.60
2010,09,11,00,02,13.50
2010,09,11,00,03,13.50
2010,09,11,00,04,13.50
2010,09,11,00,05,13.50
2010,09,11,00,06,13.50
2010,09,11,00,07,13.40
2010,09,11,00,08,13.40
2010,09,11,00,09,13.40
2010,09,11,00,10,13.40
2010,09,11,00,11,13.40
2010,09,11,00,12,13.40
2010,09,11,00,13,13.40
2010,09,11,00,14,13.40
2010,09,11,00,15,13.30
2010,09,11,00,16,13.30
2010,09,11,00,17,13.30
2010,09,11,00,18,13.30
2010,09,11,00,19,13.30
2010,09,11,00,20,13.30
2010,09,11,00,21,13.30
2010,09,11,00,22,13.30
2010,09,11,00,23,13.30
2010,09,11,00,24,13.30
2010,09,11,00,25,13.30
2010,09,11,00,26,13.30
2010,09,11,00,27,13.30
2010,09,11,00,28,13.30
2010,09,11,00,29,13.30
2010,09,11,00,30,13.30
2010,09,11,00,31,13.30
2010,09,11,00,32,13.30
2010,09,11,00,33,13.30
2010,09,11,00,34,13.30
2010,09,11,00,35,13.30
2010,09,11,00,36,13.30
2010,09,11,00,37,13.30
2010,09,11,00,38,13.30
2010,09,11,00,39,13.30
2010,09,11,00,40,13.30
2010,09,11,00,41,13.30
2010,09,11,00,42,13.30
2010,09,11,00,43,13.30
2010,09,11,00,44,13.30
2010,09,11,00,45,13.30
2010,09,11,00,46,13.30
2010,09,11,00,47,13.30
2010,09,11,00,48,13.20
2010,09,11,00,49,13.20
2010,09,11,00,50,13.20
2010,09,11,00,51,13.20
2010,09,11,00,52,13.20
2010,09,11,00,53,13.20
2010,09,11,00,54,13.20
2010,09,11,00,55,13.20
2010,09,11,00,56,13.20
2010,09,11,00,57,13.20
2010,09,11,00,58,13.20
2010,09,11,00,59,13.20
2010,09,11,01,00,13.20
2010,09,11,01,01,13.20
2010,09,11,01,02,13.20
2010,09,11,01,03,13.20
2010,09,11,01,04,13.20
2010,09,11,01,05,13.20
2010,09,11,01,06,13.10
2010,09,11,01,07,13.10
2010,09,11,01,08,13.10
2010,09,11,01,09,13.10
2010,09,11,01,10,13.10
2010,09,11,01,11,13.20
2010,09,11,01,12,13.20
2010,09,11,01,13,13.20
2010,09,11,01,14,13.20
2010,09,11,01,15,13.30
2010,09,11,01,16,13.30
2010,09,11,01,17,13.30
2010,09,11,01,18,13.30
2010,09,11,01,19,13.30
2010,09,11,01,20,13.30
2010,09,11,01,21,13.30
2010,09,11,01,22,13.30
2010,09,11,01,23,13.30
2010,09,11,01,24,13.20
2010,09,11,01,25,13.20
2010,09,11,01,26,13.20
2010,09,11,01,27,13.20
2010,09,11,01,28,13.10
2010,09,11,01,29,13.10
2010,09,11,01,30,13.10
2010,09,11,01,31,13.00
2010,09,11,01,32,13.00
2010,09,11,01,33,12.90
2010,09,11,01,34,12.90
2010,09,11,01,35,12.80
2010,09,11,01,36,12.80
2010,09,11,01,37,12.80
2010,09,11,01,38,12.70
2010,09,11,01,39,12.70
2010,09,11,01,40,12.60
2010,09,11,01,41,12.60
2010,09,11,01,42,12.60
2010,09,11,01,43,12.50
2010,09,11,01,44,12.50
2010,09,11,01,45,12.40
2010,09,11,01,49,12.30
2010,09,11,01,50,12.30
2010,09,11,01,51,12.20
2010,09,11,01,52,12.20
2010,09,11,01,53,12.20
2010,09,11,01,54,12.10
2010,09,11,01,55,12.10
2010,09,11,01,56,12.00
2010,09,11,01,57,12.00
2010,09,11,01,58,11.90
2010,09,11,01,59,11.90
2010,09,11,02,00,11.90
2010,09,11,02,01,11.80
2010,09,11,02,02,11.80
2010,09,11,02,03,11.80
2010,09,11,02,04,11.70
2010,09,11,02,05,11.70
2010,09,11,02,06,11.70
2010,09,11,02,07,11.60
2010,09,11,02,08,11.60
2010,09,11,02,09,11.60
2010,09,11,02,10,11.60
2010,09,11,02,11,11.50
2010,09,11,02,12,11.50
2010,09,11,02,13,11.40
2010,09,11,02,14,11.40
2010,09,11,02,15,11.40
2010,09,11,02,16,11.40
2010,09,11,02,17,11.40
2010,09,11,02,18,11.30
2010,09,11,02,19,11.30
2010,09,11,02,20,11.30
2010,09,11,02,21,11.30
2010,09,11,02,22,11.30
2010,09,11,02,23,11.30
2010,09,11,02,24,11.30
2010,09,11,02,25,11.30
2010,09,11,02,26,11.30
2010,09,11,02,27,11.30
2010,09,11,02,28,11.30
2010,09,11,02,29,11.30
2010,09,11,02,30,11.30
2010,09,11,02,31,11.30
2010,09,11,02,32,11.30
2010,09,11,02,33,11.30
2010,09,11,02,34,11.20
2010,09,11,02,35,11.20
2010,09,11,02,36,11.20
2010,09,11,02,37,11.20
2010,09,11,02,38,11.20
2010,09,11,02,39,11.20
2010,09,11,02,40,11.20
2010,09,11,02,41,11.20
2010,09,11,02,42,11.20
2010,09,11,02,43,11.20
2010,09,11,02,44,11.20
2010,09,11,02,45,11.30
2010,09,11,02,46,11.30
2010,09,11,02,47,11.30
2010,09,11,02,48,11.30
2010,09,11,02,49,11.30
2010,09,11,02,50,11.30
2010,09,11,02,51,11.30
2010,09,11,02,52,11.30
2010,09,11,02,53,11.30
2010,09,11,02,54,11.30
2010,09,11,02,55,11.30
2010,09,11,02,56,11.30
2010,09,11,02,57,11.30
2010,09,11,02,58,11.30
2010,09,11,02,59,11.30
2010,09,11,03,00,11.30
2010,09,11,03,01,11.30
2010,09,11,03,02,11.30
2010,09,11,03,03,11.30
2010,09,11,03,04,11.30
2010,09,11,03,05,11.30
2010,09,11,03,06,11.30
2010,09,11,03,07,11.30
2010,09,11,03,08,11.30
2010,09,11,03,09,11.30
2010,09,11,03,10,11.30
2010,09,11,03,11,11.30
2010,09,11,03,12,11.30
2010,09,11,03,13,11.30
2010,09,11,03,14,11.30
2010,09,11,03,15,11.30
2010,09,11,03,16,11.30
2010,09,11,03,17,11.30
2010,09,11,03,18,11.30
2010,09,11,03,19,11.30
2010,09,11,03,20,11.30
2010,09,11,03,21,11.30
2010,09,11,03,22,11.30
2010,09,11,03,23,11.30
2010,09,11,03,24,11.30
2010,09,11,03,25,11.30
2010,09,11,03,26,11.30
2010,09,11,03,27,11.30
2010,09,11,03,28,11.30
2010,09,11,03,29,11.30
2010,09,11,03,30,11.30
2010,09,11,03,31,11.30
2010,09,11,03,32,11.30
2010,09,11,03,33,11.30
2010,09,11,03,34,11.30
2010,09,11,03,35,11.30
2010,09,11,03,36,11.30
2010,09,11,03,37,11.30
2010,09,11,03,38,11.30
2010,09,11,03,39,11.30
2010,09,11,03,40,11.30
2010,09,11,03,41,11.30
2010,09,11,03,42,11.30
2010,09,11,03,43,11.30
2010,09,11,03,44,11.30
2010,09,11,03,45,11.30
2010,09,11,03,46,11.30
2010,09,11,03,47,11.30
2010,09,11,03,48,11.30
2010,09,11,03,49,11.30
2010,09,11,03,50,11.30
2010,09,11,03,51,11.20
2010,09,11,03,52,11.20
2010,09,11,03,53,11.20
2010,09,11,03,54,11.20
2010,09,11,03,55,11.20
2010,09,11,03,56,11.20
2010,09,11,03,57,11.20
2010,09,11,03,58,11.20
2010,09,11,03,59,11.20
2010,09,11,04,00,11.20
2010,09,11,04,01,11.20
2010,09,11,04,02,11.20
2010,09,11,04,03,11.20
2010,09,11,04,04,11.20
2010,09,11,04,05,11.20
2010,09,11,04,06,11.20
2010,09,11,04,07,11.20
2010,09,11,04,08,11.20
2010,09,11,04,09,11.20
2010,09,11,04,10,11.20
2010,09,11,04,11,11.20
2010,09,11,04,12,11.20
2010,09,11,04,13,11.20
2010,09,11,04,14,11.20
2010,09,11,04,15,11.20
2010,09,11,04,16,11.20
2010,09,11,04,17,11.20
2010,09,11,04,18,11.20
2010,09,11,04,19,11.20
2010,09,11,04,20,11.20
2010,09,11,04,21,11.20
2010,09,11,04,22,11.20
2010,09,11,04,23,11.20
2010,09,11,04,24,11.20
2010,09,11,04,25,11.20
2010,09,11,04,26,11.20
2010,09,11,04,27,11.10
2010,09,11,04,28,11.10
2010,09,11,04,29,11.10
2010,09,11,04,30,11.10
2010,09,11,04,31,11.10
2010,09,11,04,32,11.10
2010,09,11,04,33,11.10
2010,09,11,04,34,11.10
2010,09,11,04,35,11.10
2010,09,11,04,36,11.00
2010,09,11,04,37,11.00
2010,09,11,04,38,11.00
2010,09,11,04,39,11.00
2010,09,11,04,40,10.90
2010,09,11,04,41,10.90
2010,09,11,04,42,10.90
2010,09,11,04,43,10.90
2010,09,11,04,44,10.90
2010,09,11,04,45,10.90
2010,09,11,04,46,10.90
2010,09,11,04,47,10.90
2010,09,11,04,48,10.80
2010,09,11,04,49,10.80
2010,09,11,04,50,10.80
2010,09,11,04,51,10.80
2010,09,11,04,52,10.80
2010,09,11,04,53,10.80
2010,09,11,04,54,10.80
2010,09,11,04,55,10.80
2010,09,11,04,56,10.80
2010,09,11,04,57,10.70
2010,09,11,04,58,10.70
2010,09,11,04,59,10.70
2010,09,11,05,00,10.70
2010,09,11,05,01,10.70
2010,09,11,05,02,10.70
2010,09,11,05,03,10.70
2010,09,11,05,04,10.70
2010,09,11,05,05,10.70
2010,09,11,05,06,10.70
2010,09,11,05,07,10.60
2010,09,11,05,08,10.60
2010,09,11,05,09,10.60
2010,09,11,05,10,10.60
2010,09,11,05,11,10.60
2010,09,11,05,12,10.60
2010,09,11,05,13,10.60
2010,09,11,05,14,10.50
2010,09,11,05,15,10.50
2010,09,11,05,16,10.50
2010,09,11,05,17,10.50
2010,09,11,05,18,10.40
2010,09,11,05,19,10.40
2010,09,11,05,20,10.40
2010,09,11,05,21,10.40
2010,09,11,05,22,10.40
2010,09,11,05,23,10.40
2010,09,11,05,24,10.40
2010,09,11,05,25,10.30
2010,09,11,05,26,10.30
2010,09,11,05,27,10.30
2010,09,11,05,28,10.30
2010,09,11,05,29,10.30
2010,09,11,05,30,10.30
2010,09,11,05,31,10.30
2010,09,11,05,32,10.30
2010,09,11,05,33,10.30
2010,09,11,05,34,10.30
2010,09,11,05,35,10.30
2010,09,11,05,36,10.30
2010,09,11,05,37,10.20
2010,09,11,05,38,10.20
2010,09,11,05,39,10.20
2010,09,11,05,40,10.20
2010,09,11,05,41,10.20
2010,09,11,05,42,10.20
2010,09,11,05,43,10.20
2010,09,11,05,44,10.20
2010,09,11,05,45,10.20
2010,09,11,05,46,10.20
2010,09,11,05,47,10.20
2010,09,11,05,48,10.20
2010,09,11,05,49,10.10
2010,09,11,05,50,10.10
2010,09,11,05,51,10.10
2010,09,11,05,52,10.10
2010,09,11,05,53,10.10
2010,09,11,05,54,10.10
2010,09,11,05,55,10.10
2010,09,11,05,56,10.10
2010,09,11,05,57,10.10
2010,09,11,05,58,10.10
2010,09,11,05,59,10.10
2010,09,11,06,00,10.10
2010,09,11,06,01,10.10
2010,09,11,06,02,10.10
2010,09,11,06,03,10.00
2010,09,11,06,04,10.00
2010,09,11,06,05,10.00
2010,09,11,06,06,10.00
2010,09,11,06,07,10.00
2010,09,11,06,08,10.00
2010,09,11,06,09,10.00
2010,09,11,06,10,9.90
2010,09,11,06,11,9.90
2010,09,11,06,12,9.90
2010,09,11,06,13,9.90
2010,09,11,06,14,9.90
2010,09,11,06,15,9.90
2010,09,11,06,16,9.90
2010,09,11,06,17,9.90
2010,09,11,06,18,9.90
2010,09,11,06,19,9.80
2010,09,11,06,20,9.80
2010,09,11,06,21,9.80
2010,09,11,06,22,9.80
2010,09,11,06,23,9.80
2010,09,11,06,24,9.80
2010,09,11,06,25,9.80
2010,09,11,06,26,9.80
2010,09,11,06,27,9.80
2010,09,11,06,28,9.80
2010,09,11,06,29,9.80
2010,09,11,06,30,9.80
2010,09,11,06,31,9.80
2010,09,11,06,32,9.80
2010,09,11,06,33,9.80
2010,09,11,06,34,9.80
2010,09,11,06,35,9.80
2010,09,11,06,36,9.80
2010,09,11,06,37,9.70
2010,09,11,06,38,9.70
2010,09,11,06,39,9.70
2010,09,11,06,40,9.70
2010,09,11,06,41,9.70
2010,09,11,06,42,9.70
2010,09,11,06,43,9.70
2010,09,11,06,44,9.70
2010,09,11,06,45,9.70
2010,09,11,06,46,9.70
2010,09,11,06,47,9.70
2010,09,11,06,48,9.70
2010,09,11,06,49,9.80
2010,09,11,06,50,9.80
2010,09,11,06,51,9.80
2010,09,11,06,52,9.80
2010,09,11,06,53,9.80
2010,09,11,06,54,9.80
2010,09,11,06,55,9.80
2010,09,11,06,56,9.80
2010,09,11,06,57,9.80
2010,09,11,06,58,9.70
2010,09,11,06,59,9.70
2010,09,11,07,00,9.80
2010,09,11,07,01,9.80
2010,09,11,07,02,9.80
2010,09,11,07,03,9.80
2010,09,11,07,04,9.80
2010,09,11,07,05,9.80
2010,09,11,07,06,9.80
2010,09,11,07,07,9.80
2010,09,11,07,08,9.80
2010,09,11,07,09,9.80
2010,09,11,07,10,9.80
2010,09,11,07,11,9.80
2010,09,11,07,12,9.80
2010,09,11,07,13,9.80
2010,09,11,07,14,9.80
2010,09,11,07,15,9.80
2010,09,11,07,16,9.80
2010,09,11,07,17,9.80
2010,09,11,07,18,9.80
2010,09,11,07,19,9.80
2010,09,11,07,20,9.80
2010,09,11,07,21,9.80
2010,09,11,07,22,9.90
2010,09,11,07,23,9.90
2010,09,11,07,24,9.90
2010,09,11,07,25,9.90
2010,09,11,07,26,9.90
2010,09,11,07,27,9.90
2010,09,11,07,28,9.90
2010,09,11,07,29,9.90
2010,09,11,07,30,9.90
2010,09,11,07,31,9.90
2010,09,11,07,32,9.90
2010,09,11,07,33,9.90
2010,09,11,07,34,10.00
2010,09,11,07,35,10.00
2010,09,11,07,36,10.00
2010,09,11,07,37,10.00
2010,09,11,07,38,10.00
2010,09,11,07,39,10.00
2010,09,11,07,40,10.10
2010,09,11,07,41,10.10
2010,09,11,07,42,10.10
2010,09,11,07,43,10.10
2010,09,11,07,44,10.10
2010,09,11,07,45,10.10
2010,09,11,07,46,10.20
2010,09,11,07,47,10.20
2010,09,11,07,48,10.20
2010,09,11,07,49,10.20
2010,09,11,07,50,10.20
2010,09,11,07,51,10.20
2010,09,11,07,52,10.30
2010,09,11,07,53,10.30
2010,09,11,07,54,10.30
2010,09,11,07,55,10.30
2010,09,11,07,56,10.40
2010,09,11,07,57,10.40
2010,09,11,07,58,10.40
2010,09,11,07,59,10.40
2010,09,11,08,00,10.40
2010,09,11,08,01,10.50
2010,09,11,08,02,10.50
2010,09,11,08,03,10.50
2010,09,11,08,04,10.60
2010,09,11,08,05,10.60
2010,09,11,08,06,10.60
2010,09,11,08,07,10.60
2010,09,11,08,08,10.70
2010,09,11,08,09,10.70
2010,09,11,08,10,10.70
2010,09,11,08,11,10.80
2010,09,11,08,12,10.80
2010,09,11,08,13,10.80
2010,09,11,08,14,10.80
2010,09,11,08,15,10.80
2010,09,11,08,16,10.90
2010,09,11,08,17,10.90
2010,09,11,08,18,10.90
2010,09,11,08,19,11.00
2010,09,11,08,20,11.00
2010,09,11,08,21,11.10
2010,09,11,08,22,11.10
2010,09,11,08,23,11.10
2010,09,11,08,24,11.20
2010,09,11,08,25,11.30
2010,09,11,08,26,11.40
2010,09,11,08,27,11.50
2010,09,11,08,28,11.60
2010,09,11,08,29,11.70
2010,09,11,08,30,11.80
2010,09,11,08,31,11.90
2010,09,11,08,32,12.00
2010,09,11,08,33,12.20
2010,09,11,08,34,12.30
2010,09,11,08,35,12.40
2010,09,11,08,36,12.50
2010,09,11,08,37,12.60
2010,09,11,08,38,12.60
2010,09,11,08,39,12.70
2010,09,11,08,40,12.80
2010,09,11,08,41,12.80
2010,09,11,08,42,12.90
2010,09,11,08,43,13.00
2010,09,11,08,44,13.00
2010,09,11,08,45,13.10
2010,09,11,08,46,13.10
2010,09,11,08,47,13.10
2010,09,11,08,48,13.10
2010,09,11,08,49,13.20
2010,09,11,08,50,13.20
2010,09,11,08,51,13.20
2010,09,11,08,52,13.20
2010,09,11,08,53,13.20
2010,09,11,08,54,13.30
2010,09,11,08,55,13.30
2010,09,11,08,56,13.30
2010,09,11,08,57,13.30
2010,09,11,08,58,13.40
2010,09,11,08,59,13.40
2010,09,11,09,00,13.40
2010,09,11,09,01,13.50
2010,09,11,09,02,13.50
2010,09,11,09,03,13.60
2010,09,11,09,04,13.60
2010,09,11,09,05,13.70
2010,09,11,09,06,13.70
2010,09,11,09,07,13.80
2010,09,11,09,08,13.80
2010,09,11,09,09,13.80
2010,09,11,09,10,13.90
2010,09,11,09,11,13.90
2010,09,11,09,12,13.90
2010,09,11,09,13,14.00
2010,09,11,09,14,14.00
2010,09,11,09,15,14.10
2010,09,11,09,16,14.10
2010,09,11,09,17,14.10
2010,09,11,09,18,14.20
2010,09,11,09,19,14.20
2010,09,11,09,20,14.20
2010,09,11,09,21,14.20
2010,09,11,09,22,14.30
2010,09,11,09,23,14.30
2010,09,11,09,24,14.30
2010,09,11,09,25,14.40
2010,09,11,09,26,14.40
2010,09,11,09,27,14.50
2010,09,11,09,28,14.50
2010,09,11,09,29,14.50
2010,09,11,09,30,14.60
2010,09,11,09,31,14.70
2010,09,11,09,32,14.70
2010,09,11,09,33,14.70
2010,09,11,09,34,14.70
2010,09,11,09,35,14.70
2010,09,11,09,36,14.80
2010,09,11,09,37,14.80
2010,09,11,09,38,14.80
2010,09,11,09,39,14.80
2010,09,11,09,40,14.80
2010,09,11,09,41,14.80
2010,09,11,09,42,14.80
2010,09,11,09,43,14.70
2010,09,11,09,44,14.70
2010,09,11,09,45,14.70
2010,09,11,09,46,14.70
2010,09,11,09,47,14.70
2010,09,11,09,48,14.70
2010,09,11,09,49,14.80
2010,09,11,09,50,14.80
2010,09,11,09,51,14.80
2010,09,11,09,52,14.80
2010,09,11,09,53,14.80
2010,09,11,09,54,14.90
2010,09,11,09,55,15.00
2010,09,11,09,56,15.00
2010,09,11,09,57,15.00
2010,09,11,09,58,15.00
2010,09,11,09,59,15.00
2010,09,11,10,00,15.00
2010,09,11,10,01,15.00
2010,09,11,10,02,15.00
2010,09,11,10,03,15.00
2010,09,11,10,04,15.00
2010,09,11,10,05,15.00
2010,09,11,10,06,15.00
2010,09,11,10,07,15.00
2010,09,11,10,08,15.00
2010,09,11,10,09,15.00
2010,09,11,10,10,15.00
2010,09,11,10,11,15.00
2010,09,11,10,12,15.00
2010,09,11,10,13,15.00
2010,09,11,10,14,15.00
2010,09,11,10,15,14.90
2010,09,11,10,16,14.90
2010,09,11,10,17,14.80
2010,09,11,10,18,14.80
2010,09,11,10,19,14.90
2010,09,11,10,20,14.90
2010,09,11,10,21,15.00
2010,09,11,10,22,15.00
2010,09,11,10,23,15.00
2010,09,11,10,24,15.00
2010,09,11,10,25,15.10
2010,09,11,10,26,15.30
2010,09,11,10,27,15.40
2010,09,11,10,28,15.50
2010,09,11,10,29,15.60
2010,09,11,10,30,15.60
2010,09,11,10,31,15.70
2010,09,11,10,32,15.70
2010,09,11,10,33,15.70
2010,09,11,10,34,15.60
2010,09,11,10,35,15.60
2010,09,11,10,36,15.60
2010,09,11,10,37,15.60
2010,09,11,10,38,15.60
2010,09,11,10,39,15.60
2010,09,11,10,40,15.60
2010,09,11,10,41,15.60
2010,09,11,10,42,15.60
2010,09,11,10,43,15.70
2010,09,11,10,44,15.70
2010,09,11,10,45,15.70
2010,09,11,10,46,15.80
2010,09,11,10,47,15.80
2010,09,11,10,48,15.80
2010,09,11,10,49,15.90
2010,09,11,10,50,16.00
2010,09,11,10,51,16.00
2010,09,11,10,52,16.00
2010,09,11,10,53,16.10
2010,09,11,10,54,16.10
2010,09,11,10,55,16.10
2010,09,11,10,56,16.10
2010,09,11,10,57,16.20
2010,09,11,10,58,16.20
2010,09,11,10,59,16.20
2010,09,11,11,00,16.10
2010,09,11,11,01,16.10
2010,09,11,11,02,16.00
2010,09,11,11,03,16.00
2010,09,11,11,04,15.90
2010,09,11,11,05,15.90
2010,09,11,11,06,15.90
2010,09,11,11,07,15.80
2010,09,11,11,08,15.80
2010,09,11,11,09,15.80
2010,09,11,11,10,15.80
2010,09,11,11,11,15.80
2010,09,11,11,12,15.80
2010,09,11,11,13,15.80
2010,09,11,11,14,15.80
2010,09,11,11,15,15.80
2010,09,11,11,16,15.80
2010,09,11,11,17,15.80
2010,09,11,11,18,15.80
2010,09,11,11,19,15.70
2010,09,11,11,20,15.70
2010,09,11,11,21,15.70
2010,09,11,11,22,15.60
2010,09,11,11,23,15.60
2010,09,11,11,24,15.60
2010,09,11,11,25,15.50
2010,09,11,11,26,15.50
2010,09,11,11,27,15.50
2010,09,11,11,28,15.40
2010,09,11,11,29,15.40
2010,09,11,11,30,15.30
2010,09,11,11,31,15.30
2010,09,11,11,32,15.30
2010,09,11,11,33,15.30
2010,09,11,11,34,15.30
2010,09,11,11,35,15.20
2010,09,11,11,36,15.20
2010,09,11,11,37,15.10
2010,09,11,11,38,15.10
2010,09,11,11,39,15.10
2010,09,11,11,40,15.00
2010,09,11,11,41,15.00
2010,09,11,11,42,15.00
2010,09,11,11,43,15.00
2010,09,11,11,44,15.00
2010,09,11,11,45,15.00
2010,09,11,11,46,15.00
2010,09,11,11,47,15.00
2010,09,11,11,48,15.00
2010,09,11,11,49,15.00
2010,09,11,11,50,15.00
2010,09,11,11,51,15.00
2010,09,11,11,52,15.00
2010,09,11,11,53,15.00
2010,09,11,11,54,15.00
2010,09,11,11,55,15.00
2010,09,11,11,56,15.00
2010,09,11,11,57,15.00
2010,09,11,11,58,15.00
2010,09,11,11,59,15.00
2010,09,11,12,00,15.00
2010,09,11,12,01,15.00
2010,09,11,12,02,15.00
2010,09,11,12,03,15.00
2010,09,11,12,04,15.00
2010,09,11,12,05,15.00
2010,09,11,12,06,15.00
2010,09,11,12,07,15.00
2010,09,11,12,08,15.00
2010,09,11,12,09,15.00
2010,09,11,12,10,15.00
2010,09,11,12,11,15.00
2010,09,11,12,12,15.00
2010,09,11,12,13,15.00
2010,09,11,12,14,15.00
2010,09,11,12,15,15.00
2010,09,11,12,16,15.00
2010,09,11,12,17,15.00
2010,09,11,12,18,15.00
2010,09,11,12,19,15.00
2010,09,11,12,20,15.00
2010,09,11,12,21,15.00
2010,09,11,12,22,15.00
2010,09,11,12,23,15.00
2010,09,11,12,24,15.00
2010,09,11,12,25,15.00
2010,09,11,12,26,15.00
2010,09,11,12,27,15.00
2010,09,11,12,28,15.00
2010,09,11,12,29,15.00
2010,09,11,12,30,15.00
2010,09,11,12,31,15.00
2010,09,11,12,32,15.00
2010,09,11,12,33,15.00
2010,09,11,12,34,15.00
2010,09,11,12,35,15.00
2010,09,11,12,36,15.10
2010,09,11,12,37,15.20
2010,09,11,12,38,15.20
2010,09,11,12,39,15.30
2010,09,11,12,40,15.30
2010,09,11,12,41,15.30
2010,09,11,12,42,15.30
2010,09,11,12,43,15.30
2010,09,11,12,44,15.20
2010,09,11,12,45,15.20
2010,09,11,12,46,15.10
2010,09,11,12,47,15.00
2010,09,11,12,48,15.00
2010,09,11,12,49,15.00
2010,09,11,12,50,15.00
2010,09,11,12,51,15.00
2010,09,11,12,52,15.00
2010,09,11,12,53,15.00
2010,09,11,12,54,15.10
2010,09,11,12,55,15.10
2010,09,11,12,56,15.10
2010,09,11,12,57,15.10
2010,09,11,12,58,15.20
2010,09,11,12,59,15.20
2010,09,11,13,00,15.20
2010,09,11,13,01,15.20
2010,09,11,13,02,15.20
2010,09,11,13,03,15.20
2010,09,11,13,04,15.20
2010,09,11,13,05,15.30
2010,09,11,13,06,15.30
2010,09,11,13,07,15.30
2010,09,11,13,08,15.30
2010,09,11,13,09,15.30
2010,09,11,13,10,15.30
2010,09,11,13,11,15.30
2010,09,11,13,12,15.30
2010,09,11,13,13,15.30
2010,09,11,13,14,15.30
2010,09,11,13,15,15.30
2010,09,11,13,16,15.30
2010,09,11,13,17,15.20
2010,09,11,13,18,15.10
2010,09,11,13,19,15.10
2010,09,11,13,20,15.00
2010,09,11,13,21,15.00
2010,09,11,13,22,15.00
2010,09,11,13,23,15.00
2010,09,11,13,24,15.00
2010,09,11,13,25,15.00
2010,09,11,13,26,15.00
2010,09,11,13,27,15.00
2010,09,11,13,28,15.00
2010,09,11,13,29,15.00
2010,09,11,13,30,15.00
2010,09,11,13,31,15.00
2010,09,11,13,32,14.90
2010,09,11,13,33,14.90
2010,09,11,13,34,14.90
2010,09,11,13,35,14.90
2010,09,11,13,36,14.90
2010,09,11,13,37,14.90
2010,09,11,13,38,14.90
2010,09,11,13,39,14.90
2010,09,11,13,40,14.90
2010,09,11,13,41,14.90
2010,09,11,13,42,14.90
2010,09,11,13,43,14.90
2010,09,11,13,44,14.80
2010,09,11,13,45,14.80
2010,09,11,13,46,14.80
2010,09,11,13,47,14.80
2010,09,11,13,48,14.80
2010,09,11,13,49,14.80
2010,09,11,13,50,14.80
2010,09,11,13,51,14.80
2010,09,11,13,52,14.80
2010,09,11,13,53,14.80
2010,09,11,13,54,14.70
2010,09,11,13,55,14.70
2010,09,11,13,56,14.70
2010,09,11,13,57,14.70
2010,09,11,13,58,14.70
2010,09,11,13,59,14.80
2010,09,11,14,00,14.80
2010,09,11,14,01,14.80
2010,09,11,14,02,14.80
2010,09,11,14,03,14.80
2010,09,11,14,04,14.80
2010,09,11,14,05,14.80
2010,09,11,14,06,14.80
2010,09,11,14,07,14.80
2010,09,11,14,08,14.80
2010,09,11,14,09,14.80
2010,09,11,14,10,14.80
2010,09,11,14,11,14.80
2010,09,11,14,12,14.80
2010,09,11,14,13,14.80
2010,09,11,14,14,14.80
2010,09,11,14,15,14.80
2010,09,11,14,16,14.80
2010,09,11,14,17,14.80
2010,09,11,14,18,14.80
2010,09,11,14,19,14.70
2010,09,11,14,20,14.70
2010,09,11,14,21,14.70
2010,09,11,14,22,14.70
2010,09,11,14,23,14.70
2010,09,11,14,24,14.70
2010,09,11,14,25,14.70
2010,09,11,14,26,14.70
2010,09,11,14,27,14.70
2010,09,11,14,28,14.70
2010,09,11,14,29,14.70
2010,09,11,14,30,14.70
2010,09,11,14,31,14.70
2010,09,11,14,32,14.70
2010,09,11,14,33,14.70
2010,09,11,14,34,14.70
2010,09,11,14,35,14.70
2010,09,11,14,36,14.60
2010,09,11,14,37,14.60
2010,09,11,14,38,14.60
2010,09,11,14,39,14.60
2010,09,11,14,40,14.50
2010,09,11,14,41,14.50
2010,09,11,14,42,14.50
2010,09,11,14,43,14.40
2010,09,11,14,44,14.30
2010,09,11,14,45,14.30
2010,09,11,14,46,14.20
2010,09,11,14,47,14.20
2010,09,11,14,48,14.20
2010,09,11,14,49,14.10
2010,09,11,14,50,14.10
2010,09,11,14,51,14.00
2010,09,11,14,52,14.00
2010,09,11,14,53,13.90
2010,09,11,14,54,13.90
2010,09,11,14,55,13.80
2010,09,11,14,56,13.80
2010,09,11,14,57,13.80
2010,09,11,14,58,13.80
2010,09,11,14,59,13.70
2010,09,11,15,00,13.70
2010,09,11,15,01,13.70
2010,09,11,15,02,13.60
2010,09,11,15,03,13.60
2010,09,11,15,04,13.60
2010,09,11,15,05,13.50
2010,09,11,15,06,13.50
2010,09,11,15,07,13.40
2010,09,11,15,08,13.40
2010,09,11,15,09,13.30
2010,09,11,15,10,13.30
2010,09,11,15,11,13.30
2010,09,11,15,12,13.30
2010,09,11,15,13,13.20
2010,09,11,15,14,13.20
2010,09,11,15,15,13.20
2010,09,11,15,16,13.10
2010,09,11,15,17,13.10
2010,09,11,15,18,13.10
2010,09,11,15,19,13.10
2010,09,11,15,20,13.10
2010,09,11,15,21,13.00
2010,09,11,15,22,13.00
2010,09,11,15,23,12.90
2010,09,11,15,24,12.90
2010,09,11,15,25,12.90
2010,09,11,15,26,12.90
2010,09,11,15,27,12.90
2010,09,11,15,28,12.80
2010,09,11,15,29,12.80
2010,09,11,15,30,12.80
2010,09,11,15,31,12.80
2010,09,11,15,32,12.80
2010,09,11,15,33,12.80
2010,09,11,15,34,12.80
2010,09,11,15,35,12.80
2010,09,11,15,36,12.80
2010,09,11,15,37,12.80
2010,09,11,15,38,12.80
2010,09,11,15,39,12.80
2010,09,11,15,40,12.70
2010,09,11,15,41,12.70
2010,09,11,15,42,12.70
2010,09,11,15,43,12.70
2010,09,11,15,44,12.70
2010,09,11,15,45,12.70
2010,09,11,15,46,12.70
2010,09,11,15,47,12.60
2010,09,11,15,48,12.60
2010,09,11,15,49,12.60
2010,09,11,15,50,12.60
2010,09,11,15,51,12.60
2010,09,11,15,52,12.60
2010,09,11,15,53,12.60
2010,09,11,15,54,12.60
2010,09,11,15,55,12.60
2010,09,11,15,56,12.60
2010,09,11,15,57,12.60
2010,09,11,15,58,12.60
2010,09,11,15,59,12.50
2010,09,11,16,00,12.50
2010,09,11,16,01,12.50
2010,09,11,16,02,12.50
2010,09,11,16,03,12.40
2010,09,11,16,04,12.40
2010,09,11,16,05,12.40
2010,09,11,16,06,12.40
2010,09,11,16,07,12.40
2010,09,11,16,08,12.40
2010,09,11,16,09,12.40
2010,09,11,16,10,12.40
2010,09,11,16,11,12.40
2010,09,11,16,12,12.40
2010,09,11,16,13,12.40
2010,09,11,16,14,12.40
2010,09,11,16,15,12.40
2010,09,11,16,16,12.40
2010,09,11,16,17,12.40
2010,09,11,16,18,12.40
2010,09,11,16,19,12.30
2010,09,11,16,20,12.30
2010,09,11,16,21,12.30
2010,09,11,16,22,12.30
2010,09,11,16,23,12.30
2010,09,11,16,24,12.30
2010,09,11,16,25,12.30
2010,09,11,16,26,12.30
2010,09,11,16,27,12.30
2010,09,11,16,28,12.30
2010,09,11,16,29,12.30
2010,09,11,16,30,12.30
2010,09,11,16,31,12.30
2010,09,11,16,32,12.30
2010,09,11,16,33,12.30
2010,09,11,16,34,12.30
2010,09,11,16,35,12.30
2010,09,11,16,36,12.30
2010,09,11,16,37,12.30
2010,09,11,16,38,12.30
2010,09,11,16,39,12.30
2010,09,11,16,40,12.30
2010,09,11,16,41,12.30
2010,09,11,16,42,12.20
2010,09,11,16,43,12.20
2010,09,11,16,44,12.20
2010,09,11,16,45,12.20
2010,09,11,16,46,12.20
2010,09,11,16,47,12.20
2010,09,11,16,48,12.20
2010,09,11,16,49,12.20
2010,09,11,16,50,12.20
2010,09,11,16,51,12.20
2010,09,11,16,52,12.20
2010,09,11,16,53,12.20
2010,09,11,16,54,12.10
2010,09,11,16,55,12.10
2010,09,11,16,56,12.10
2010,09,11,16,57,12.10
2010,09,11,16,58,12.10
2010,09,11,16,59,12.10
2010,09,11,17,00,12.10
2010,09,11,17,01,12.10
2010,09,11,17,02,12.10
2010,09,11,17,03,12.10
2010,09,11,17,04,12.10
2010,09,11,17,05,12.10
2010,09,11,17,06,12.10
2010,09,11,17,07,12.10
2010,09,11,17,08,12.20
2010,09,11,17,09,12.20
2010,09,11,17,10,12.20
2010,09,11,17,11,12.20
2010,09,11,17,12,12.20
2010,09,11,17,13,12.20
2010,09,11,17,14,12.10
2010,09,11,17,15,12.10
2010,09,11,17,16,12.10
2010,09,11,17,17,12.10
2010,09,11,17,18,12.10
2010,09,11,17,19,12.10
2010,09,11,17,20,12.10
2010,09,11,17,21,12.10
2010,09,11,17,22,12.10
2010,09,11,17,23,12.10
2010,09,11,17,24,12.10
2010,09,11,17,25,12.10
2010,09,11,17,26,12.10